Wind_Speed
42 42 42 43 43 44 44 45 45 45 46 46 46 45 45 45 44 45 45 44 44 44 43 43 43 43 43 43 43 42 42 42 41 40 40 40 41 41 41 41 41 40 40
42 42 42 43 43 44 45 46 46 47 47 47 46 45 45 45 45 45 45 45 45 45 44 44 44 44 44 44 43 43 43 43 42 42 41 41 41 42 41 41 42 41 41
43 43 43 43 43 44 45 47 47 47 47 47 47 46 46 46 46 46 45 45 45 45 46 46 45 45 44 43 43 43 43 44 43 43 42 42 42 42 42 42 42 41 41
43 43 44 44 44 45 45 46 47 47 47 47 47 47 48 47 47 47 46 46 45 46 46 46 45 45 44 44 44 44 44 43 43 43 42 42 42 43 43 42 41 42 42
43 44 44 44 44 44 45 45 46 47 47 48 48 47 48 48 48 48 48 48 47 46 46 45 46 45 45 45 45 44 44 44 43 43 42 42 42 42 42 42 42 42 42
43 44 44 44 44 44 43 44 45 45 46 47 48 47 47 48 48 48 48 49 48 47 46 46 46 46 46 45 45 45 44 44 43 42 42 41 41 41 42 42 42 41 40
42 43 43 43 43 43 43 43 43 43 44 45 46 47 47 47 47 47 47 48 48 47 47 47 47 46 45 45 44 44 43 43 42 41 41 41 41 41 41 40 40 38 38
42 42 42 43 42 42 42 42 42 43 43 43 44 44 45 45 46 46 46 46 47 46 46 47 46 45 44 43 43 43 43 42 42 41 41 41 41 40 40 39 39 39 39
41 41 42 42 42 42 42 42 42 42 42 42 42 42 42 43 44 45 45 45 45 45 46 45 45 44 44 44 44 43 42 42 41 41 40 40 39 39 39 39 39 40 40
40 41 42 42 41 41 41 41 41 41 41 41 41 41 42 42 43 43 44 44 44 44 44 44 45 44 44 44 43 43 42 41 41 40 40 39 39 39 38 39 40 40 40
38 39 40 41 40 40 40 40 41 41 41 41 41 42 42 42 43 43 43 43 43 43 43 43 43 43 43 43 43 42 41 41 41 40 40 39 39 38 39 39 39 40 41
36 37 38 39 39 39 39 39 40 40 41 41 41 41 42 42 43 43 43 43 43 42 42 42 42 42 42 43 43 42 42 41 41 40 40 39 39 39 39 40 40 41 42
34 36 37 37 38 38 38 38 38 39 39 40 40 40 40 40 41 42 42 43 43 42 42 41 41 42 42 42 42 42 42 42 42 41 41 40 40 40 41 41 42 42 43
32 33 34 34 35 36 36 37 37 37 38 38 38 39 39 39 39 39 40 41 42 42 41 41 41 41 42 42 42 42 42 42 41 40 40 40 41 41 41 41 42 42 43
30 31 32 33 33 34 35 35 35 35 36 36 37 37 37 37 37 38 38 39 39 40 41 42 41 41 41 41 41 41 41 41 40 39 40 40 41 41 42 42 42 42 42
29 31 31 32 33 33 34 34 34 34 34 35 36 36 37 37 37 37 37 38 39 40 41 41 40 40 40 40 40 40 40 40 39 39 40 40 41 41 41 41 42 42 42
29 30 31 32 32 33 33 33 33 33 33 34 35 36 36 37 37 37 37 37 38 38 39 39 39 39 39 39 39 39 39 39 39 39 39 39 39 40 40 40 40 41 41
27 28 30 31 32 32 32 32 32 33 33 33 34 35 35 35 36 36 36 36 36 37 37 38 37 38 38 39 39 38 38 38 38 38 38 38 38 38 39 39 39 39 39
27 27 28 29 31 31 32 32 32 33 33 33 34 34 35 35 36 36 36 35 35 36 36 36 36 36 36 36 37 37 37 37 37 37 37 37 37 37 37 37 37 37 37
26 27 28 29 30 31 32 33 34 34 33 33 33 34 34 34 34 34 34 34 34 34 34 34 35 35 35 34 35 35 35 35 36 36 36 36 36 36 35 35 35 35 35
26 27 28 28 29 30 31 32 34 34 34 34 34 33 33 33 33 33 33 33 33 32 33 33 34 35 34 34 34 34 34 34 34 34 34 35 34 34 33 33 33 33 32
24 25 27 28 29 30 31 31 31 32 32 32 33 32 32 32 32 32 32 32 32 32 32 32 33 33 34 34 33 33 33 33 33 33 33 32 32 32 31 31 31 31 31
23 24 26 27 28 29 29 29 29 29 29 29 30 30 30 29 30 31 31 31 31 31 31 31 31 32 32 32 31 32 32 32 32 32 32 31 30 30 30 30 30 30 30
23 23 24 25 26 26 26 26 26 27 27 27 27 28 28 28 28 29 30 30 31 31 30 30 31 30 30 30 30 30 30 31 31 31 31 30 30 30 30 30 30 30 30
22 22 21 21 22 23 23 24 24 24 24 25 25 26 26 26 27 28 28 28 29 29 30 30 30 30 31 31 30 30 30 30 30 30 30 29 29 29 28 28 28 29 29
19 19 19 19 19 19 20 21 22 23 23 23 24 24 25 25 26 26 26 26 26 28 28 28 28 29 29 29 29 29 29 29 28 28 28 28 28 28 28 28 28 28 29
Wind_Direction
253 251 250 249 249 249 249 248 248 248 248 248 249 250 250 250 250 251 252 253 254 254 256 257 258 259 260 261 262 263 263 264 264 265 265 265 266 266 266 266 267 267 268
252 251 250 249 249 248 248 247 248 248 248 249 249 249 249 250 251 252 253 253 254 254 255 257 258 260 261 261 262 263 264 264 265 265 265 265 265 265 266 266 267 266 267
252 251 250 249 250 249 248 248 248 248 248 248 248 249 249 250 251 252 252 253 254 255 255 257 258 259 260 261 262 263 264 265 265 266 266 265 265 265 266 266 266 266 267
251 251 250 250 250 250 250 250 249 249 249 248 248 249 250 251 251 252 252 253 254 255 256 257 257 258 259 260 261 262 263 264 265 266 266 265 265 265 265 266 266 267 268
252 251 250 250 250 251 251 250 250 249 248 248 248 249 249 250 251 252 252 253 254 255 256 255 256 257 258 259 261 262 263 264 264 265 265 265 265 265 265 265 266 267 268
252 251 250 250 250 251 250 249 248 249 249 248 248 249 249 249 250 251 252 253 254 254 254 255 256 258 258 259 260 261 262 264 264 264 264 265 265 265 265 265 266 267 267
252 250 249 249 250 250 249 248 248 249 249 250 250 250 250 250 251 251 251 252 253 253 254 255 256 257 258 258 259 260 261 263 264 264 264 265 265 264 264 265 266 267 268
250 249 248 249 249 249 249 250 249 249 249 250 250 250 250 250 251 252 252 252 251 251 253 254 255 256 257 258 259 260 261 262 264 264 264 264 264 263 264 265 266 267 268
249 248 248 248 248 248 249 249 249 249 249 249 249 250 250 250 251 251 252 251 251 252 253 253 254 254 256 258 259 260 260 262 262 263 263 263 263 264 264 265 267 268 270
250 249 249 248 248 249 249 249 249 249 249 249 250 250 250 250 251 252 251 251 251 252 252 251 251 252 254 256 257 258 259 261 261 262 262 263 264 264 265 266 268 269 271
251 249 249 248 249 249 249 249 249 250 249 250 250 251 251 251 251 251 251 250 250 250 250 250 251 252 254 255 256 257 259 260 260 261 261 262 264 265 266 268 269 271 272
251 248 248 247 248 249 249 249 249 249 249 250 251 251 251 252 251 251 250 250 250 250 250 251 252 252 253 254 255 256 258 259 260 260 260 262 264 265 266 268 270 272 274
253 249 247 247 247 248 249 248 247 248 249 250 250 250 251 252 251 250 250 249 249 250 251 251 252 252 253 254 255 256 257 259 259 260 261 262 264 266 267 270 272 274 275
253 249 247 247 247 248 247 247 247 247 248 249 250 250 250 250 250 250 249 250 250 250 250 251 252 253 253 254 255 256 257 258 259 260 261 263 265 266 268 270 272 273 275
254 251 249 248 248 247 247 247 247 247 248 249 250 250 249 249 249 250 250 250 250 250 250 251 252 253 254 254 255 255 256 258 259 261 262 264 265 266 268 270 272 273 275
257 253 249 249 247 247 246 247 247 247 248 249 250 250 249 249 249 251 252 251 251 251 251 251 252 253 253 254 255 255 256 257 259 261 263 264 266 267 268 270 272 274 275
258 254 251 250 248 247 247 246 246 247 248 250 250 250 250 250 250 251 251 251 251 251 251 251 252 253 253 254 255 255 256 258 259 261 263 265 266 268 269 270 272 274 276
258 256 254 252 249 248 247 246 247 248 249 251 251 249 250 250 250 250 251 251 251 250 250 251 251 252 253 254 254 255 256 257 259 261 262 264 266 268 269 271 273 275 276
260 258 256 253 250 249 248 248 249 250 251 251 251 249 249 249 250 251 251 251 252 252 252 251 251 252 253 253 254 255 256 257 259 260 262 264 266 267 269 271 273 275 277
262 259 257 255 253 252 252 252 252 252 252 252 250 250 249 248 249 249 249 250 251 251 251 251 251 252 253 254 254 255 255 257 258 259 262 263 265 267 269 271 274 276 277
263 259 258 256 255 255 255 254 254 253 253 251 250 250 249 247 247 247 248 249 250 250 251 251 251 253 254 254 254 253 254 256 258 259 262 263 265 267 268 271 273 274 275
263 260 258 257 256 257 257 255 254 253 252 250 248 247 248 247 246 246 246 246 248 250 251 252 252 252 253 253 254 254 254 255 257 259 261 262 264 265 267 269 271 273 274
267 264 262 259 256 256 256 254 252 251 250 248 246 245 245 246 245 245 245 246 247 249 251 252 252 252 253 253 254 255 255 256 258 259 260 261 262 264 266 268 270 271 273
268 266 264 261 258 256 255 253 250 248 247 245 244 243 243 245 245 245 246 246 247 248 250 251 251 251 252 253 255 256 256 257 257 257 258 259 261 264 266 267 269 270 272
268 265 263 260 258 256 254 251 247 246 244 243 243 243 243 244 244 245 246 247 248 249 250 251 251 251 252 253 255 256 256 256 256 257 257 259 261 263 265 267 269 270 271
266 264 262 260 258 255 252 249 246 244 243 243 242 242 243 243 243 243 244 245 247 249 250 252 252 251 251 252 253 255 255 255 255 256 258 259 261 263 265 267 268 269 270
Height
5612 5614 5616 5619 5622 5624 5627 5631 5634 5637 5640 5643 5646 5649 5652 5655 5657 5660 5663 5665 5667 5669 5671 5673 5674 5676 5677 5677 5678 5678 5679 5679 5680 5681 5681 5681 5680 5680 5680 5681 5681 5681 5681
5599 5601 5604 5606 5609 5612 5615 5618 5621 5624 5627 5631 5634 5637 5640 5643 5645 5648 5651 5653 5655 5657 5659 5661 5663 5664 5665 5666 5666 5667 5668 5668 5669 5669 5670 5670 5670 5669 5669 5670 5670 5670 5670
5586 5588 5591 5594 5596 5599 5602 5605 5608 5611 5614 5618 5621 5624 5627 5630 5633 5635 5638 5640 5643 5645 5647 5649 5651 5652 5654 5654 5655 5656 5656 5657 5657 5657 5658 5658 5658 5658 5658 5659 5659 5659 5659
5573 5576 5578 5581 5584 5586 5589 5592 5595 5598 5601 5605 5608 5611 5614 5617 5619 5622 5625 5627 5630 5632 5634 5636 5638 5640 5642 5643 5643 5644 5645 5645 5645 5646 5646 5646 5647 5646 5647 5647 5647 5648 5648
5560 5562 5565 5568 5570 5573 5576 5579 5582 5585 5588 5591 5594 5597 5600 5604 5606 5609 5612 5614 5617 5619 5621 5623 5626 5628 5629 5630 5632 5632 5633 5633 5634 5634 5634 5635 5635 5635 5636 5636 5636 5636 5636
5546 5549 5552 5555 5557 5560 5562 5565 5568 5571 5574 5577 5581 5584 5587 5590 5593 5595 5598 5601 5604 5606 5609 5611 5613 5615 5617 5618 5619 5620 5621 5621 5622 5622 5623 5623 5624 5624 5624 5624 5624 5625 5625
5533 5536 5539 5542 5544 5547 5550 5553 5556 5558 5561 5564 5568 5571 5574 5577 5579 5582 5584 5587 5590 5593 5595 5598 5601 5602 5604 5605 5607 5608 5608 5609 5610 5611 5611 5612 5612 5612 5612 5613 5613 5613 5613
5520 5523 5526 5529 5532 5535 5538 5540 5543 5546 5549 5552 5555 5558 5561 5564 5566 5568 5571 5573 5577 5580 5582 5585 5588 5590 5591 5592 5594 5595 5596 5597 5598 5599 5600 5601 5600 5600 5601 5601 5601 5602 5602
5508 5511 5514 5517 5520 5523 5526 5528 5531 5534 5537 5540 5543 5545 5548 5551 5553 5555 5558 5561 5564 5567 5569 5572 5574 5577 5579 5580 5582 5583 5585 5586 5586 5587 5588 5588 5588 5589 5589 5590 5590 5590 5591
5495 5498 5502 5505 5508 5511 5514 5516 5519 5522 5525 5528 5531 5533 5536 5539 5541 5543 5545 5548 5552 5554 5557 5559 5562 5564 5566 5567 5569 5571 5572 5574 5574 5575 5576 5576 5577 5578 5578 5578 5578 5579 5579
5483 5486 5490 5493 5496 5499 5502 5505 5508 5511 5514 5516 5519 5522 5524 5527 5529 5531 5533 5536 5539 5541 5544 5546 5549 5551 5553 5554 5556 5558 5560 5561 5562 5563 5564 5565 5566 5566 5567 5567 5567 5567 5566
5472 5475 5478 5482 5485 5488 5491 5493 5496 5499 5502 5504 5507 5509 5512 5514 5516 5519 5521 5523 5526 5529 5532 5534 5536 5538 5540 5542 5544 5546 5547 5548 5550 5551 5552 5553 5554 5555 5555 5555 5555 5554 5554
5462 5464 5467 5470 5473 5476 5479 5482 5484 5487 5490 5493 5495 5498 5500 5502 5504 5506 5509 5511 5514 5517 5519 5522 5524 5526 5527 5529 5531 5533 5534 5536 5538 5539 5541 5542 5543 5543 5543 5543 5542 5542 5541
5452 5454 5457 5460 5463 5465 5468 5471 5473 5476 5479 5481 5484 5486 5488 5491 5493 5495 5497 5499 5502 5504 5507 5509 5512 5513 5515 5517 5519 5521 5522 5524 5526 5527 5529 5530 5530 5531 5531 5531 5530 5529 5528
5443 5445 5447 5450 5453 5455 5457 5460 5463 5465 5467 5470 5473 5475 5477 5480 5482 5484 5486 5488 5490 5492 5494 5497 5500 5501 5503 5505 5507 5509 5510 5512 5514 5515 5516 5517 5518 5518 5518 5518 5518 5517 5516
5433 5435 5438 5440 5442 5445 5447 5450 5452 5455 5457 5459 5462 5464 5466 5469 5471 5473 5475 5477 5479 5481 5483 5485 5488 5490 5492 5494 5496 5497 5499 5501 5502 5503 5504 5505 5505 5506 5506 5505 5505 5504 5504
5424 5426 5427 5430 5432 5434 5437 5440 5442 5445 5446 5449 5451 5453 5455 5457 5460 5462 5463 5465 5467 5469 5471 5474 5476 5478 5480 5482 5484 5486 5487 5489 5490 5491 5492 5493 5493 5493 5493 5493 5493 5492 5491
5415 5416 5418 5420 5422 5425 5427 5430 5432 5435 5437 5438 5440 5442 5444 5446 5448 5451 5453 5455 5457 5458 5460 5463 5465 5467 5469 5470 5472 5474 5475 5477 5478 5479 5480 5481 5481 5482 5482 5481 5481 5480 5479
5406 5407 5409 5410 5412 5415 5417 5420 5422 5424 5426 5428 5430 5432 5434 5436 5438 5440 5442 5444 5446 5448 5450 5452 5454 5456 5457 5459 5461 5462 5463 5465 5466 5467 5468 5469 5470 5470 5470 5470 5469 5469 5468
5397 5398 5400 5401 5403 5405 5407 5410 5412 5414 5415 5417 5419 5421 5423 5425 5427 5429 5431 5433 5435 5437 5439 5441 5443 5445 5447 5448 5450 5451 5452 5454 5455 5456 5457 5458 5458 5459 5459 5459 5458 5458 5457
5389 5390 5391 5392 5394 5395 5397 5399 5401 5403 5405 5407 5409 5410 5412 5415 5417 5419 5421 5423 5425 5427 5429 5431 5433 5434 5436 5438 5439 5440 5442 5443 5444 5445 5446 5447 5447 5448 5448 5448 5448 5447 5446
5380 5381 5382 5383 5384 5386 5387 5388 5390 5392 5394 5396 5398 5400 5402 5404 5407 5409 5411 5413 5415 5417 5419 5421 5423 5424 5426 5427 5429 5430 5431 5432 5433 5434 5435 5436 5437 5437 5438 5438 5437 5437 5436
5372 5372 5373 5374 5375 5376 5377 5378 5380 5382 5384 5386 5388 5391 5393 5395 5397 5399 5402 5404 5406 5408 5410 5411 5413 5414 5416 5417 5419 5420 5421 5422 5423 5424 5425 5426 5426 5427 5428 5428 5428 5427 5427
5364 5364 5364 5365 5366 5367 5368 5369 5371 5373 5375 5377 5379 5382 5384 5386 5388 5390 5392 5395 5397 5398 5400 5402 5403 5405 5406 5408 5409 5410 5411 5413 5413 5414 5415 5416 5417 5418 5418 5418 5418 5418 5418
5356 5356 5356 5357 5358 5359 5360 5361 5363 5365 5367 5369 5372 5374 5375 5377 5379 5381 5383 5385 5387 5389 5391 5392 5394 5396 5397 5399 5400 5401 5402 5403 5404 5405 5406 5407 5408 5408 5409 5409 5409 5409 5409
5349 5349 5350 5350 5351 5352 5353 5354 5356 5358 5360 5362 5364 5366 5367 5369 5371 5373 5375 5377 5379 5380 5382 5383 5385 5386 5388 5389 5391 5392 5393 5394 5395 5396 5398 5398 5399 5399 5400 5400 5400 5400 5400